Regional Weather Roundup
Issued by NWS

Home | Current Version | Previous Version | Graphics & Text | Print | Product List | Glossary On
Versions: 1 2 3 4 5 6 7 8 9 10 11 12 13 14 15 16 17 18 19 20 21 22 23 24 25 26 27 28 29 30 31 32 33 34 35 36 37 38 39 40 41 42 43 44 45 46 47 48 49 50
000
ASUS44 KMEG 301900
RWRTN
TENNESSEE HOURLY STATE WEATHER ROUNDUP
NATIONAL WEATHER SERVICE MEMPHIS TN
200 PM CDT FRI SEP 30 2016

TNZ002-004-019-021-049-052-054-088>092-302000-
WEST TENNESSEE

CITY           SKY/WX    TMP DP  RH WIND       PRES   REMARKS
MEMPHIS INTL   PTSUNNY   76  55  48 VRB5      30.07F
NWS MEMPHIS      N/A     72 N/A N/A MISG        N/A
JACKSON        PTSUNNY  N/A N/A N/A SW9       30.07F
DYERSBURG      PTSUNNY  N/A N/A N/A MISG        N/A
PARIS          CLOUDY    66  54  63 W14       30.04F
$$

TNZ008-025-027-028-033-062-065-066-302000-
NORTH MIDDLE TENNESSEE

CITY           SKY/WX    TMP DP  RH WIND       PRES   REMARKS
NASHVILLE      LGT RAIN  64  52  64 SW7       30.05F
CLARKSVILLE    CLOUDY    68  54  60 W10       30.02F
SMYRNA         CLOUDY    68  54  60 SW9       30.05F
COOKEVILLE     CLOUDY    63  54  72 W7        30.06S
CROSSVILLE     CLOUDY    62  47  57 W13       30.06F
$$

TNZ061-075-076-078-094-096-097-302000-
SOUTH MIDDLE TENNESSEE

CITY           SKY/WX    TMP DP  RH WIND       PRES   REMARKS
SHELBYVILLE    CLOUDY    66  55  68 SW8       30.07F
$$

TNZ017-018-042-046-047-302000-
NORTHEAST TENNESSEE

CITY           SKY/WX    TMP DP  RH WIND       PRES   REMARKS
TRI CITIES     MOSUNNY   67  53  61 VRB6      30.02F
$$

TNZ012-013-036-069-073-074-302000-
CENTRAL EAST TENNESSEE

CITY           SKY/WX    TMP DP  RH WIND       PRES   REMARKS
KNOXVILLE      MOSUNNY   70  47  43 W8        30.02F
OAK RIDGE      SUNNY     74  45  35 MISG      30.03F
GATLINBURG     SUNNY     73  46  38 W6        30.01S
$$

TNZ083-085-099-302000-
SOUTHEAST TENNESSEE

CITY           SKY/WX    TMP DP  RH WIND       PRES   REMARKS
CHATTANOOGA    PTSUNNY   70  47  43 VRB6      30.04F
$$

SKY/WX REPORTED AS FAIR MEANS FEW OR NO CLOUDS BELOW
12 THOUSAND FEET.




USA.gov is the U.S. government's official web portal to all federal, state and local government web resources and services.